This is the latest recevied weather packets stored in our database for station/object KB9MLJ. If no packets are shown the sender has not sent any weather packets the latest 10 day(s).
| Time | Temp. | Humidity | Pressure | Rain* | Wind** | Luminosity | Snow |
|---|---|---|---|---|---|---|---|
| 1777668985 | 9.44° C | 67% | 1017.2 hPa | 0 mm | - | 125 W/m² | - |
| 1777668683 | 10° C | 68% | 1016.8 hPa | 0 mm | - | 115 W/m² | - |
| 1777668379 | 9.44° C | 67% | 1017.2 hPa | 0 mm | - | 81 W/m² | - |
| 1777668076 | 9.44° C | 67% | 1017.2 hPa | 0 mm | - | 92 W/m² | - |
| 1777667772 | 9.44° C | 68% | 1017.2 hPa | 0 mm | - | 101 W/m² | - |
| 1777667470 | 10° C | 69% | 1017.2 hPa | 0 mm | - | 112 W/m² | - |
| 1777667167 | 10° C | 69% | 1017.2 hPa | 0 mm | - | 176 W/m² | - |
| 1777666863 | 10.56° C | 67% | 1016.8 hPa | 0 mm | - | 130 W/m² | - |
| 1777666560 | 10.56° C | 62% | 1017.2 hPa | 0 mm | - | 164 W/m² | - |
| 1777666256 | 10.56° C | 55% | 1016.8 hPa | 0 mm | - | 272 W/m² | - |
| 1777665954 | 10.56° C | 55% | 1016.8 hPa | 0 mm | - | 274 W/m² | - |
| 1777665652 | 10.56° C | 55% | 1017.2 hPa | 0 mm | - | 219 W/m² | - |
| 1777665348 | 10.56° C | 54% | 1016.8 hPa | 0 mm | - | 207 W/m² | - |
| 1777665043 | 10.56° C | 55% | 1017.2 hPa | 0 mm | - | 239 W/m² | - |
| 1777664739 | 10.56° C | 56% | 1017.2 hPa | 0 mm | - | 303 W/m² | - |
| 1777664435 | 10° C | 56% | 1016.8 hPa | 0 mm | - | 133 W/m² | - |
| 1777664133 | 10° C | 54% | 1017.2 hPa | 0 mm | - | 130 W/m² | - |
| 1777663831 | 10° C | 55% | 1017.2 hPa | 0 mm | - | 150 W/m² | - |
| 1777663528 | 10.56° C | 55% | 1017.2 hPa | 0 mm | - | 167 W/m² | - |
| 1777663226 | 10° C | 56% | 1016.8 hPa | 0 mm | - | 209 W/m² | - |
| 1777662922 | 10.56° C | 57% | 1016.8 hPa | 0 mm | - | 253 W/m² | - |
| 1777662620 | 10.56° C | 57% | 1017.2 hPa | 0 mm | - | 266 W/m² | - |
| 1777662315 | 10.56° C | 58% | 1017.2 hPa | 0 mm | - | 300 W/m² | - |
| 1777662011 | 10° C | 57% | 1016.8 hPa | 0 mm | - | 259 W/m² | - |
| 1777661707 | 10.56° C | 58% | 1016.4 hPa | 0 mm | - | 375 W/m² | - |
* Rain latest hour (hover to see other rain measurements)
** Current wind speed in m/s (hover to see current wind gust speed)